Tracking 26442 objects as of 7-Dec-2022
HD Live streaming from Space Station
objects crossing your sky now

NOAA 16 DEB

Track NOAA 16 DEB now!
10-day predictions


NORAD ID: 41540
Int'l Code: 2000-055NQ
Perigee: 844.5 km
Apogee: 899.9 km
Inclination: 98.8 °
Period: 102.2 minutes
Semi major axis: 7243 km
RCS: Unknown
Launch date: September 21, 2000
Source: United States (US)
Launch site: AIR FORCE WESTERN TEST RANGE (AFWTR)

Note: This is SATELLITE DEBRIS
aabbcc
Your satellite tracking list
Your tracking list is empty




NASA's NSSDC Master Catalog

Two Line Element Set (TLE):
1 41540U 00055NQ  22340.42382367  .00001987  00000-0  11783-2 0  9997
2 41540  98.7718  27.6922 0038239 245.3889 114.3295 14.08346523341366
Source of the keplerian elements: AFSPC